UAL700 KIAH-KEWR

Flight info

Callsign UAL700
Flight time N/A
Altitude 37000
Route LURIC8 HAWES DCT SUTTN J29 CARIN DCT MEMFS Q29 DORET J584 SLT FQM3
Aircraft B77W/H-SDE1E2E3FGHIJ2J3J4J5M1RWXYZ/LB1D1

Departure

Time N/A
Airport George Bush Intercontinental Airport (KIAH)

Arrival

Time 2026-05-04 01:50
Airport Newark Liberty International Airport (KEWR)
Time Latitude Longitude Altitude Speed Heading
2026-05-04 01:17 39.17710 -85.36357 36986 ft 508 kts 40°
2026-05-04 01:17 39.20109 -85.33012 36987 ft 508 kts 40°
2026-05-04 01:18 39.24912 -85.26303 36989 ft 508 kts 41°
2026-05-04 01:18 39.48423 -84.93274 36991 ft 507 kts 41°
2026-05-04 01:19 39.86208 -84.39394 37008 ft 508 kts 42°
2026-05-04 01:19 40.26102 -83.87647 37076 ft 507 kts 42°
2026-05-04 01:19 40.36492 -83.52126 37137 ft 530 kts 74°
2026-05-04 01:20 40.44756 -83.15672 36912 ft 516 kts 69°
2026-05-04 01:20 40.61403 -82.42766 37112 ft 528 kts 71°
2026-05-04 01:21 40.77981 -81.67425 36974 ft 532 kts 71°
2026-05-04 01:21 40.85886 -81.30570 36875 ft 521 kts 72°
2026-05-04 01:21 40.93611 -80.93932 36995 ft 517 kts 72°
2026-05-04 01:22 41.08942 -80.19236 37130 ft 536 kts 73°
2026-05-04 01:22 41.16595 -79.80889 37023 ft 537 kts 73°
2026-05-04 01:22 41.19793 -79.64641 36975 ft 532 kts 73°
2026-05-04 01:23 41.21641 -79.55178 36993 ft 527 kts 73°
2026-05-04 01:23 41.23475 -79.45759 37005 ft 525 kts 73°
2026-05-04 01:24 41.25300 -79.36346 37000 ft 525 kts 73°
2026-05-04 01:24 41.27105 -79.26990 37001 ft 526 kts 73°
2026-05-04 01:25 41.28918 -79.17554 36993 ft 527 kts 73°
2026-05-04 01:25 41.30728 -79.08083 36986 ft 529 kts 73°
2026-05-04 01:26 41.34304 -78.89232 36992 ft 531 kts 73°
2026-05-04 01:26 41.43405 -78.40413 36964 ft 534 kts 74°
2026-05-04 01:27 41.50244 -78.02872 36966 ft 533 kts 74°
2026-05-04 01:27 41.51024 -77.93095 36955 ft 533 kts 99°
2026-05-04 01:28 41.48250 -77.75285 36980 ft 532 kts 102°
2026-05-04 01:28 41.36813 -76.97140 37004 ft 540 kts 102°
2026-05-04 01:29 41.32739 -76.71425 36930 ft 540 kts 109°
2026-05-04 01:29 41.30093 -76.62182 36948 ft 537 kts 114°
2026-05-04 01:30 41.27321 -76.52987 36945 ft 535 kts 112°
2026-05-04 01:30 41.24766 -76.43690 36944 ft 534 kts 111°
2026-05-04 01:31 41.22314 -76.34483 36610 ft 517 kts 111°
2026-05-04 01:31 41.21124 -76.30051 35551 ft 508 kts 111°
2026-05-04 01:31 41.19920 -76.25610 34019 ft 512 kts 111°
2026-05-04 01:31 41.18704 -76.21146 32082 ft 516 kts 110°
2026-05-04 01:32 41.17479 -76.16655 30278 ft 524 kts 110°
2026-05-04 01:32 41.16248 -76.12144 29837 ft 515 kts 110°
2026-05-04 01:32 41.15032 -76.07685 29134 ft 512 kts 110°
2026-05-04 01:32 41.13826 -76.03281 28552 ft 506 kts 110°
2026-05-04 01:33 41.12625 -75.98906 27962 ft 500 kts 110°
2026-05-04 01:33 41.11439 -75.94596 27395 ft 495 kts 110°
2026-05-04 01:33 41.10275 -75.90371 26801 ft 491 kts 110°
2026-05-04 01:33 41.09106 -75.86134 26221 ft 487 kts 110°
2026-05-04 01:34 41.07945 -75.81931 25654 ft 483 kts 110°
2026-05-04 01:34 41.06794 -75.77767 25083 ft 479 kts 110°
2026-05-04 01:34 41.05649 -75.73635 24512 ft 476 kts 110°
2026-05-04 01:34 41.04517 -75.69558 23962 ft 472 kts 110°
2026-05-04 01:35 41.03385 -75.65483 23362 ft 470 kts 110°
2026-05-04 01:35 41.02263 -75.61442 22717 ft 466 kts 110°
2026-05-04 01:35 41.01364 -75.57466 21744 ft 448 kts 103°
2026-05-04 01:35 41.00811 -75.53411 20730 ft 447 kts 96°
2026-05-04 01:36 41.00584 -75.49339 20240 ft 441 kts 92°
2026-05-04 01:36 41.00430 -75.45300 19715 ft 438 kts 92°
2026-05-04 01:36 41.00272 -75.41279 19183 ft 434 kts 92°
2026-05-04 01:36 41.00111 -75.37299 18668 ft 431 kts 92°
2026-05-04 01:37 40.99944 -75.33343 18127 ft 428 kts 92°
2026-05-04 01:37 40.99777 -75.29481 17551 ft 425 kts 92°
2026-05-04 01:37 40.99602 -75.25536 16996 ft 421 kts 92°
2026-05-04 01:37 40.99430 -75.21737 16516 ft 417 kts 92°
2026-05-04 01:38 40.99258 -75.17927 15989 ft 413 kts 92°
2026-05-04 01:38 40.99085 -75.14146 15466 ft 410 kts 91°
2026-05-04 01:38 40.98912 -75.10394 14959 ft 407 kts 91°
2026-05-04 01:38 40.98737 -75.06662 14442 ft 405 kts 91°
2026-05-04 01:39 40.98566 -75.02959 13932 ft 402 kts 91°
2026-05-04 01:39 40.98393 -74.99271 13381 ft 400 kts 91°
2026-05-04 01:39 40.98221 -74.95614 12836 ft 397 kts 91°
2026-05-04 01:39 40.98047 -74.91985 12314 ft 394 kts 91°
2026-05-04 01:40 40.97875 -74.88385 11817 ft 391 kts 91°
2026-05-04 01:40 40.97701 -74.84782 11309 ft 389 kts 90°
2026-05-04 01:40 40.97529 -74.81239 10925 ft 382 kts 90°
2026-05-04 01:40 40.97358 -74.77784 10799 ft 370 kts 90°
2026-05-04 01:41 40.97193 -74.74451 10650 ft 359 kts 90°
2026-05-04 01:41 40.97031 -74.71191 10498 ft 349 kts 90°
2026-05-04 01:41 40.96873 -74.68036 10351 ft 339 kts 90°
2026-05-04 01:41 40.96719 -74.64966 10208 ft 329 kts 90°
2026-05-04 01:42 40.96570 -74.61984 10093 ft 320 kts 90°
2026-05-04 01:42 40.96423 -74.59081 9907 ft 313 kts 90°
2026-05-04 01:42 40.96281 -74.56241 9564 ft 314 kts 89°
2026-05-04 01:42 40.95682 -74.44237 8065 ft 312 kts 91°
2026-05-04 01:43 40.95529 -74.41388 7767 ft 310 kts 90°
2026-05-04 01:43 40.95377 -74.38548 7460 ft 309 kts 90°
2026-05-04 01:43 40.95227 -74.35714 7136 ft 307 kts 91°
2026-05-04 01:43 40.95078 -74.32891 6803 ft 306 kts 91°
2026-05-04 01:44 40.94927 -74.30081 6406 ft 308 kts 91°
2026-05-04 01:44 40.94778 -74.27274 6085 ft 306 kts 91°
2026-05-04 01:44 40.94628 -74.24463 5758 ft 306 kts 91°
2026-05-04 01:44 40.94479 -74.21705 5409 ft 296 kts 91°
2026-05-04 01:45 40.94334 -74.19011 5000 ft 293 kts 91°
2026-05-04 01:45 40.94006 -74.16387 4632 ft 289 kts 112°
2026-05-04 01:45 40.91215 -74.12858 3979 ft 278 kts 155°
2026-05-04 01:46 40.89516 -74.11618 3656 ft 279 kts 154°
2026-05-04 01:46 40.87852 -74.10387 3466 ft 275 kts 155°
2026-05-04 01:46 40.86206 -74.09162 3336 ft 267 kts 155°
2026-05-04 01:46 40.84576 -74.08099 3072 ft 255 kts 171°
2026-05-04 01:47 40.82893 -74.08075 2838 ft 236 kts 201°
2026-05-04 01:47 40.81395 -74.08783 2581 ft 224 kts 207°
2026-05-04 01:47 40.80039 -74.09581 2267 ft 202 kts 211°
2026-05-04 01:47 40.78839 -74.10350 2021 ft 185 kts 212°
2026-05-04 01:48 40.77692 -74.11090 1751 ft 179 kts 211°
2026-05-04 01:48 40.76616 -74.11776 1503 ft 162 kts 212°
2026-05-04 01:48 40.75681 -74.12372 1308 ft 140 kts 212°
2026-05-04 01:48 40.74806 -74.12933 1133 ft 141 kts 211°
2026-05-04 01:49 40.73914 -74.13504 938 ft 144 kts 210°
2026-05-04 01:49 40.73013 -74.14079 740 ft 142 kts 208°
2026-05-04 01:49 40.72122 -74.14646 553 ft 143 kts 207°
2026-05-04 01:49 40.71229 -74.15212 367 ft 143 kts 206°
2026-05-04 01:50 40.70346 -74.15775 165 ft 140 kts 207°
2026-05-04 01:50 40.69475 -74.16330 32 ft 135 kts 206°
2026-05-04 01:50 40.68761 -74.16787 25 ft 84 kts 206°
2026-05-04 01:50 40.68418 -74.17007 29 ft 38 kts 210°
2026-05-04 01:51 40.68278 -74.17159 27 ft 23 kts 226°
2026-05-04 01:51 40.68190 -74.17320 27 ft 20 kts 237°
2026-05-04 01:51 40.68143 -74.17429 23 ft 11 kts 262°
2026-05-04 01:51 40.68170 -74.17517 27 ft 10 kts 297°
2026-05-04 01:52 40.68203 -74.17602 26 ft 10 kts 296°
2026-05-04 01:52 40.68237 -74.17645 23 ft 0 kts 348°
2026-05-04 01:52 40.68275 -74.17637 24 ft 14 kts 16°
2026-05-04 01:52 40.68372 -74.17575 26 ft 16 kts 27°
2026-05-04 01:53 40.68470 -74.17514 28 ft 16 kts 25°
2026-05-04 01:53 40.68569 -74.17451 29 ft 16 kts 26°
2026-05-04 01:53 40.68667 -74.17390 30 ft 16 kts 25°
2026-05-04 01:53 40.68769 -74.17325 27 ft 17 kts 26°
2026-05-04 01:54 40.68881 -74.17253 29 ft 18 kts 26°
2026-05-04 01:54 40.68998 -74.17178 26 ft 20 kts 26°
2026-05-04 01:54 40.69123 -74.17098 26 ft 20 kts 25°
2026-05-04 01:54 40.69222 -74.17036 27 ft 15 kts 25°
2026-05-04 01:55 40.69322 -74.16989 26 ft 15 kts 13°
2026-05-04 01:55 40.69382 -74.16975 28 ft 0 kts
2026-05-04 01:56 40.69436 -74.16973 29 ft 10 kts 357°
2026-05-04 01:56 40.69509 -74.16982 28 ft 11 kts 352°
2026-05-04 01:56 40.69588 -74.17004 25 ft 12 kts 345°
2026-05-04 01:56 40.69665 -74.17039 28 ft 12 kts 340°
2026-05-04 01:57 40.69737 -74.17087 29 ft 12 kts 329°
2026-05-04 01:57 40.69803 -74.17150 29 ft 12 kts 319°
2026-05-04 01:57 40.69861 -74.17224 27 ft 12 kts 313°
2026-05-04 01:57 40.69914 -74.17307 27 ft 12 kts 307°
2026-05-04 01:58 40.69952 -74.17401 28 ft 12 kts 289°
2026-05-04 01:58 40.69948 -74.17497 29 ft 10 kts 229°
2026-05-04 01:58 40.69904 -74.17564 28 ft 10 kts 250°
2026-05-04 01:58 40.69900 -74.17654 20 ft 9 kts 253°
2026-05-04 01:59 40.69869 -74.17713 27 ft 8 kts 253°
2026-05-04 01:59 40.69873 -74.17782 27 ft 0 kts 278°